Time,TemperatureF,DewpointF,PressureIn,WindDirection,WindDirectionDegrees,WindSpeedMPH,WindSpeedGustMPH,Humidity,HourlyPrecipIn,Conditions,Clouds,dailyrainin,SolarRadiationWatts/m^2,SoftwareType,DateUTC
2013-07-24 00:01:00,77.0,72.0,-100.00,West,266,3.0,9.0,86,0.00,,,0.00,0.000000,,2013-07-24 04:01:00,
2013-07-24 00:32:00,76.0,72.0,-100.00,ESE,102,0.0,5.0,87,0.00,,,0.00,0.000000,,2013-07-24 04:32:00,
2013-07-24 00:43:00,76.0,72.0,-100.00,ESE,102,0.0,5.0,87,0.00,,,0.00,0.000000,,2013-07-24 04:43:00,
2013-07-24 00:53:00,76.0,72.0,-100.00,ESE,102,0.0,5.0,87,0.00,,,0.00,0.000000,,2013-07-24 04:53:00,
2013-07-24 01:02:00,76.0,72.0,-100.00,ESE,102,0.0,5.0,87,0.00,,,0.00,0.000000,,2013-07-24 05:02:00,
2013-07-24 01:33:00,75.0,72.0,-100.00,South,172,0.0,2.0,91,0.00,,,0.00,0.000000,,2013-07-24 05:33:00,
2013-07-24 01:43:00,75.0,72.0,-100.00,South,172,0.0,2.0,91,0.00,,,0.00,0.000000,,2013-07-24 05:43:00,
2013-07-24 01:52:00,75.0,72.0,-100.00,South,172,0.0,2.0,91,0.00,,,0.00,0.000000,,2013-07-24 05:52:00,
2013-07-24 02:01:00,75.0,72.0,-100.00,South,172,0.0,2.0,91,0.00,,,0.00,0.000000,,2013-07-24 06:01:00,
2013-07-24 02:34:00,75.0,73.0,-100.00,ESE,116,0.0,2.0,93,0.00,,,0.00,0.000000,,2013-07-24 06:34:00,
2013-07-24 02:43:00,75.0,73.0,-100.00,ESE,116,0.0,2.0,93,0.00,,,0.00,0.000000,,2013-07-24 06:43:00,
2013-07-24 02:53:00,75.0,73.0,-100.00,ESE,116,0.0,2.0,93,0.00,,,0.00,0.000000,,2013-07-24 06:53:00,
2013-07-24 03:02:00,75.0,73.0,-100.00,ESE,116,0.0,2.0,93,0.00,,,0.00,0.000000,,2013-07-24 07:02:00,
2013-07-24 03:22:00,75.0,73.0,-100.00,West,278,1.0,2.0,94,0.00,,,-99.99,0.000000,,2013-07-24 07:22:00,
2013-07-24 03:32:00,75.0,73.0,-100.00,West,278,1.0,2.0,94,0.00,,,-99.99,0.000000,,2013-07-24 07:32:00,
2013-07-24 03:43:00,75.0,73.0,-100.00,West,278,1.0,2.0,94,0.00,,,-99.99,0.000000,,2013-07-24 07:43:00,
2013-07-24 03:53:00,75.0,73.0,-100.00,West,278,1.0,2.0,94,0.00,,,-99.99,0.000000,,2013-07-24 07:53:00,
2013-07-24 04:02:00,75.0,73.0,-100.00,West,278,1.0,2.0,94,0.00,,,-99.99,0.000000,,2013-07-24 08:02:00,
2013-07-24 04:22:00,75.0,73.0,-100.00,West,269,4.0,7.0,95,0.00,,,0.00,0.000000,,2013-07-24 08:22:00,
2013-07-24 04:32:00,75.0,73.0,-100.00,West,269,4.0,7.0,95,0.00,,,0.00,0.000000,,2013-07-24 08:32:00,
2013-07-24 04:43:00,75.0,73.0,-100.00,West,269,4.0,7.0,95,0.00,,,0.00,0.000000,,2013-07-24 08:43:00,
2013-07-24 04:52:00,75.0,73.0,-100.00,West,269,4.0,7.0,95,0.00,,,0.00,0.000000,,2013-07-24 08:52:00,
2013-07-24 05:02:00,75.0,73.0,-100.00,West,269,4.0,7.0,95,0.00,,,0.00,0.000000,,2013-07-24 09:02:00,
2013-07-24 05:32:00,74.0,71.0,-100.00,West,266,6.0,14.0,91,0.00,,,0.00,0.000000,,2013-07-24 09:32:00,
2013-07-24 05:43:00,74.0,71.0,-100.00,West,266,6.0,14.0,91,0.00,,,0.00,0.000000,,2013-07-24 09:43:00,
2013-07-24 05:53:00,74.0,71.0,-100.00,West,266,6.0,14.0,91,0.00,,,0.00,0.000000,,2013-07-24 09:53:00,
2013-07-24 06:02:00,74.0,71.0,-100.00,West,266,6.0,14.0,91,0.00,,,0.00,0.000000,,2013-07-24 10:02:00,
2013-07-24 06:33:00,73.0,69.0,-100.00,West,273,5.0,11.0,88,0.00,,,0.00,0.000000,,2013-07-24 10:33:00,
2013-07-24 06:43:00,73.0,69.0,-100.00,West,273,5.0,11.0,88,0.00,,,0.00,0.000000,,2013-07-24 10:43:00,
2013-07-24 06:53:00,73.0,69.0,-100.00,West,273,5.0,11.0,88,0.00,,,0.00,0.000000,,2013-07-24 10:53:00,
2013-07-24 07:02:00,73.0,69.0,-100.00,West,273,5.0,11.0,88,0.00,,,0.00,0.000000,,2013-07-24 11:02:00,
2013-07-24 07:32:00,73.0,69.0,-100.00,West,269,5.0,9.0,88,0.00,,,0.00,8.000000,,2013-07-24 11:32:00,
2013-07-24 07:44:00,73.0,69.0,-100.00,West,269,5.0,9.0,88,0.00,,,0.00,8.000000,,2013-07-24 11:44:00,
2013-07-24 07:52:00,73.0,69.0,-100.00,West,269,5.0,9.0,88,0.00,,,0.00,8.000000,,2013-07-24 11:52:00,
2013-07-24 08:02:00,73.0,69.0,-100.00,West,269,5.0,9.0,88,0.00,,,0.00,8.000000,,2013-07-24 12:02:00,
2013-07-24 08:32:00,73.0,69.0,-100.00,West,275,5.0,10.0,86,0.00,,,0.00,53.000000,,2013-07-24 12:32:00,
2013-07-24 08:42:00,73.0,69.0,-100.00,West,275,5.0,10.0,86,0.00,,,0.00,53.000000,,2013-07-24 12:42:00,
2013-07-24 08:52:00,73.0,69.0,-100.00,West,275,5.0,10.0,86,0.00,,,0.00,53.000000,,2013-07-24 12:52:00,
2013-07-24 09:02:00,73.0,69.0,-100.00,West,275,5.0,10.0,86,0.00,,,0.00,53.000000,,2013-07-24 13:02:00,
2013-07-24 09:32:00,76.0,70.0,-100.00,West,277,6.0,11.0,81,0.00,,,0.00,199.000000,,2013-07-24 13:32:00,
2013-07-24 09:43:00,76.0,70.0,-100.00,West,277,6.0,11.0,81,0.00,,,0.00,199.000000,,2013-07-24 13:43:00,
2013-07-24 09:53:00,76.0,70.0,-100.00,West,277,6.0,11.0,81,0.00,,,0.00,199.000000,,2013-07-24 13:53:00,
2013-07-24 10:02:00,76.0,70.0,-100.00,West,277,6.0,11.0,81,0.00,,,0.00,199.000000,,2013-07-24 14:02:00,
2013-07-24 10:22:00,76.0,69.0,-100.00,West,274,6.0,12.0,79,0.00,,,0.00,279.000000,,2013-07-24 14:22:00,
2013-07-24 10:32:00,76.0,69.0,-100.00,West,274,6.0,12.0,79,0.00,,,0.00,279.000000,,2013-07-24 14:32:00,
2013-07-24 10:43:00,76.0,69.0,-100.00,West,274,6.0,12.0,79,0.00,,,0.00,279.000000,,2013-07-24 14:43:00,
2013-07-24 10:55:00,76.0,69.0,-100.00,West,274,6.0,12.0,79,0.00,,,0.00,279.000000,,2013-07-24 14:55:00,
2013-07-24 11:02:00,76.0,69.0,-100.00,West,274,6.0,12.0,79,0.00,,,0.00,279.000000,,2013-07-24 15:02:00,
2013-07-24 11:22:00,78.0,69.0,-100.00,West,280,6.0,11.0,74,0.00,,,0.00,369.000000,,2013-07-24 15:22:00,
2013-07-24 11:33:00,78.0,69.0,-100.00,West,280,6.0,11.0,74,0.00,,,0.00,369.000000,,2013-07-24 15:33:00,
2013-07-24 11:43:00,78.0,69.0,-100.00,West,280,6.0,11.0,74,0.00,,,0.00,369.000000,,2013-07-24 15:43:00,
2013-07-24 11:53:00,78.0,69.0,-100.00,West,280,6.0,11.0,74,0.00,,,0.00,369.000000,,2013-07-24 15:53:00,
2013-07-24 12:02:00,78.0,69.0,-100.00,West,280,6.0,11.0,74,0.00,,,0.00,369.000000,,2013-07-24 16:02:00,
2013-07-24 12:23:00,81.0,69.0,-100.00,West,273,6.0,11.0,68,0.00,,,0.00,627.000000,,2013-07-24 16:23:00,
2013-07-24 12:33:00,81.0,69.0,-100.00,West,273,6.0,11.0,68,0.00,,,0.00,627.000000,,2013-07-24 16:33:00,
2013-07-24 12:43:00,81.0,69.0,-100.00,West,273,6.0,11.0,68,0.00,,,0.00,627.000000,,2013-07-24 16:43:00,
2013-07-24 12:53:00,81.0,69.0,-100.00,West,273,6.0,11.0,68,0.00,,,0.00,627.000000,,2013-07-24 16:53:00,
2013-07-24 13:02:00,81.0,69.0,-100.00,West,273,6.0,11.0,68,0.00,,,0.00,627.000000,,2013-07-24 17:02:00,
2013-07-24 13:22:00,82.0,71.0,-100.00,West,276,5.0,11.0,70,0.00,,,0.00,462.000000,,2013-07-24 17:22:00,
2013-07-24 13:33:00,82.0,71.0,-100.00,West,276,5.0,11.0,70,0.00,,,0.00,462.000000,,2013-07-24 17:33:00,
2013-07-24 13:43:00,82.0,71.0,-100.00,West,276,5.0,11.0,70,0.00,,,0.00,462.000000,,2013-07-24 17:43:00,
2013-07-24 13:53:00,82.0,71.0,-100.00,West,276,5.0,11.0,70,0.00,,,0.00,462.000000,,2013-07-24 17:53:00,
2013-07-24 14:02:00,82.0,71.0,-100.00,West,276,5.0,11.0,70,0.00,,,0.00,462.000000,,2013-07-24 18:02:00,
2013-07-24 14:22:00,84.0,72.0,-100.00,West,277,6.0,12.0,68,0.00,,,0.00,589.000000,,2013-07-24 18:22:00,
2013-07-24 14:33:00,84.0,72.0,-100.00,West,277,6.0,12.0,68,0.00,,,0.00,589.000000,,2013-07-24 18:33:00,
2013-07-24 14:43:00,84.0,72.0,-100.00,West,277,6.0,12.0,68,0.00,,,0.00,589.000000,,2013-07-24 18:43:00,
2013-07-24 14:52:00,84.0,72.0,-100.00,West,277,6.0,12.0,68,0.00,,,0.00,589.000000,,2013-07-24 18:52:00,
2013-07-24 15:02:00,84.0,72.0,-100.00,West,277,6.0,12.0,68,0.00,,,0.00,589.000000,,2013-07-24 19:02:00,
2013-07-24 15:33:00,86.0,72.0,-100.00,West,278,6.0,11.0,64,0.00,,,0.00,699.000000,,2013-07-24 19:33:00,
2013-07-24 15:43:00,86.0,72.0,-100.00,West,278,6.0,11.0,64,0.00,,,0.00,699.000000,,2013-07-24 19:43:00,
2013-07-24 15:53:00,86.0,72.0,-100.00,West,278,6.0,11.0,64,0.00,,,0.00,699.000000,,2013-07-24 19:53:00,
2013-07-24 16:02:00,86.0,72.0,-100.00,West,278,6.0,11.0,64,0.00,,,0.00,699.000000,,2013-07-24 20:02:00,
2013-07-24 16:23:00,88.0,73.0,-100.00,West,273,5.0,12.0,61,0.00,,,0.00,756.000000,,2013-07-24 20:23:00,
2013-07-24 16:33:00,88.0,73.0,-100.00,West,273,5.0,12.0,61,0.00,,,0.00,756.000000,,2013-07-24 20:33:00,
2013-07-24 16:43:00,88.0,73.0,-100.00,West,273,5.0,12.0,61,0.00,,,0.00,756.000000,,2013-07-24 20:43:00,
2013-07-24 16:53:00,88.0,73.0,-100.00,West,273,5.0,12.0,61,0.00,,,0.00,756.000000,,2013-07-24 20:53:00,
2013-07-24 17:03:00,88.0,73.0,-100.00,West,273,5.0,12.0,61,0.00,,,0.00,756.000000,,2013-07-24 21:03:00,
2013-07-24 17:32:00,88.0,75.0,-100.00,West,280,5.0,10.0,65,0.00,,,0.00,575.000000,,2013-07-24 21:32:00,
2013-07-24 17:44:00,88.0,75.0,-100.00,West,280,5.0,10.0,65,0.00,,,0.00,575.000000,,2013-07-24 21:44:00,
2013-07-24 17:53:00,88.0,75.0,-100.00,West,280,5.0,10.0,65,0.00,,,0.00,575.000000,,2013-07-24 21:53:00,
2013-07-24 18:02:00,88.0,75.0,-100.00,West,280,5.0,10.0,65,0.00,,,0.00,575.000000,,2013-07-24 22:02:00,
2013-07-24 18:32:00,89.0,73.0,-100.00,WNW,285,5.0,9.0,60,0.00,,,0.00,479.000000,,2013-07-24 22:32:00,
2013-07-24 18:43:00,89.0,73.0,-100.00,WNW,285,5.0,9.0,60,0.00,,,0.00,479.000000,,2013-07-24 22:43:00,
2013-07-24 18:53:00,89.0,73.0,-100.00,WNW,285,5.0,9.0,60,0.00,,,0.00,479.000000,,2013-07-24 22:53:00,
2013-07-24 19:02:00,89.0,73.0,-100.00,WNW,285,5.0,9.0,60,0.00,,,0.00,479.000000,,2013-07-24 23:02:00,
2013-07-24 19:33:00,88.0,74.0,-100.00,West,279,4.0,9.0,64,0.00,,,0.00,227.000000,,2013-07-24 23:33:00,
2013-07-24 19:43:00,88.0,74.0,-100.00,West,279,4.0,9.0,64,0.00,,,0.00,227.000000,,2013-07-24 23:43:00,
2013-07-24 19:52:00,88.0,74.0,-100.00,West,279,4.0,9.0,64,0.00,,,0.00,227.000000,,2013-07-24 23:52:00,
2013-07-24 20:02:00,88.0,74.0,-100.00,West,279,4.0,9.0,64,0.00,,,0.00,227.000000,,2013-07-25 00:02:00,
2013-07-24 20:33:00,83.0,74.0,-100.00,West,268,1.0,6.0,74,0.00,,,0.00,86.000000,,2013-07-25 00:33:00,
2013-07-24 20:43:00,83.0,74.0,-100.00,West,268,1.0,6.0,74,0.00,,,0.00,86.000000,,2013-07-25 00:43:00,
2013-07-24 20:53:00,83.0,74.0,-100.00,West,268,1.0,6.0,74,0.00,,,0.00,86.000000,,2013-07-25 00:53:00,
2013-07-24 21:03:00,83.0,74.0,-100.00,West,268,1.0,6.0,74,0.00,,,0.00,86.000000,,2013-07-25 01:03:00,
2013-07-24 21:32:00,79.0,75.0,-100.00,SW,228,1.0,2.0,87,0.00,,,0.00,3.000000,,2013-07-25 01:32:00,
2013-07-24 21:43:00,79.0,75.0,-100.00,SW,228,1.0,2.0,87,0.00,,,0.00,3.000000,,2013-07-25 01:43:00,
2013-07-24 21:53:00,79.0,75.0,-100.00,SW,228,1.0,2.0,87,0.00,,,0.00,3.000000,,2013-07-25 01:53:00,
2013-07-24 22:02:00,79.0,75.0,-100.00,SW,228,1.0,2.0,87,0.00,,,0.00,3.000000,,2013-07-25 02:02:00,
2013-07-24 22:33:00,79.0,71.0,-100.00,WNW,282,4.0,9.0,77,0.00,,,0.00,0.000000,,2013-07-25 02:33:00,
2013-07-24 22:43:00,79.0,71.0,-100.00,WNW,282,4.0,9.0,77,0.00,,,0.00,0.000000,,2013-07-25 02:43:00,
2013-07-24 22:53:00,79.0,71.0,-100.00,WNW,282,4.0,9.0,77,0.00,,,0.00,0.000000,,2013-07-25 02:53:00,
2013-07-24 23:02:00,79.0,71.0,-100.00,WNW,282,4.0,9.0,77,0.00,,,0.00,0.000000,,2013-07-25 03:02:00,
2013-07-24 23:40:00,76.0,71.0,-100.00,West,279,2.0,6.0,84,0.00,,,0.00,0.000000,,2013-07-25 03:40:00,
2013-07-24 23:52:00,76.0,71.0,-100.00,West,279,2.0,6.0,84,0.00,,,0.00,0.000000,,2013-07-25 03:52:00,